Location: Bieg
(49.3499°N, 10.3835°E)
Time: 14:33:22
(UTC+00:00)

DELTA 1 DEB - Visible Passes

Search period start: 04 October 2024 00:00
Search period end: 14 October 2024 00:00
Orbit: 737 x 844 km, 98.8° (Epoch: 03 October)

Date Brightness Start Highest point End Pass type
(mag) Time Alt. Az. Time Alt. Az. Time Alt. Az.
04 Oct ? 18:26:20 10° SW 18:29:54 19° W 18:33:28 10° NW visible
05 Oct ? 17:55:46 10° SSW 18:00:17 34° W 18:04:47 10° NNW visible
06 Oct ? 17:25:51 10° S 17:30:46 60° WSW 17:35:41 10° NNW visible
07 Oct ? 18:38:31 10° SW 18:41:26 16° W 18:44:22 10° NW visible
08 Oct ? 18:07:31 10° SSW 18:11:43 27° W 18:15:55 10° NW visible
09 Oct ? 04:38:25 10° ENE 04:39:13 10° E 04:39:59 10° E visible
09 Oct ? 17:37:19 10° S 17:42:07 48° W 17:46:54 10° NNW visible
10 Oct ? 17:07:38 10° SSE 17:12:36 85° WSW 17:17:35 10° NNW visible
10 Oct ? 18:50:50 10° WSW 18:52:51 12° W 18:54:51 10° WNW visible
11 Oct ? 18:19:11 10° SW 18:23:01 22° W 18:26:51 10° NW visible
12 Oct ? 04:48:08 10° ENE 04:50:34 13° E 04:53:00 10° ESE visible
12 Oct ? 17:48:41 10° SSW 17:53:18 39° W 17:57:56 10° NNW visible
13 Oct ? 17:18:46 10° S 17:23:42 70° WSW 17:28:38 10° NNW visible
